Regional Weather Roundup
Issued by NWS Raleigh/Durham, NC

Home | Current Version | Previous Version | Text Only | Print | Product List | Glossary On
Versions: 1 2 3 4 5 6 7 8 9 10 11 12 13 14 15 16 17 18 19 20 21 22 23 24 25 26 27
000
ASUS42 KRAH 230810
RWRRAH
NORTH CAROLINA WEATHER ROUNDUP
NATIONAL WEATHER SERVICE RALEIGH NC
400 AM EDT SAT SEP 23 2017

NOTE: "FAIR" INDICATES FEW OR NO CLOUDS BELOW 12,000 FEET WITH NO
SIGNIFICANT WEATHER AND/OR OBSTRUCTIONS TO VISIBILITY.

NCZ001-053-055-056-065-067-230900-
WESTERN NORTH CAROLINA

CITY           SKY/WX    TMP DP  RH WIND       PRES   REMARKS
ASHEVILLE      CLEAR     65  63  93 W3        30.13S
JEFFERSON      CLOUDY    59  59  98 CALM      30.17S FOG
MORGANTON      PTCLDY    62  62 100 CALM      30.10F FOG
HICKORY        PTCLDY    68  67  96 NW5       30.06S
RUTHERFORDTON  PTCLDY    67  67 100 CALM      30.07S
MOUNT AIRY     PTCLDY    68  64  87 CALM      30.09S
BOONE          FOG       58  58 100 CALM      30.18S VSB 1
$$

NCZ021-022-025-041-071-084-088-230900-
CENTRAL NORTH CAROLINA

CITY           SKY/WX    TMP DP  RH WIND       PRES   REMARKS
CHARLOTTE      PTCLDY    66  65  96 CALM      30.04S
GREENSBORO     PTCLDY    67  66  97 CALM      30.04F
WINSTON-SALEM  PTCLDY    67  64  90 CALM      30.06S
RALEIGH-DURHAM MOCLDY    66  65  96 CALM      30.03S
FORT BRAGG     CLEAR     66  65  97 CALM      30.00F
FAYETTEVILLE   CLEAR     67  66  97 SW3       30.01S
BURLINGTON     CLEAR     65  63  93 CALM      30.04S
LAURINBURG     CLEAR     64  64 100 CALM      30.02S FOG
$$

NCZ011-015-027-028-043-044-047-080-103-230900-
NORTHEASTERN NORTH CAROLINA

CITY           SKY/WX    TMP DP  RH WIND       PRES   REMARKS
ROCKY MT-WILSO FOG       63  63 100 CALM      30.02F VSB 1/4
GREENVILLE     FOG       64  64 100 CALM      30.03S VSB 1/4
WASHINGTON     CLEAR     67  66  97 CALM      30.01F
ELIZABETH CITY PTCLDY    64  64 100 CALM      30.00S FOG
MANTEO         CLEAR     64  62  93 CALM      30.01S
CAPE HATTERAS  PTCLDY    71  70  96 CALM      29.99F FOG
$$

NCZ078-087-090-091-093-098-101-230900-
SOUTHEASTERN NORTH CAROLINA

CITY           SKY/WX    TMP DP  RH WIND       PRES   REMARKS
LUMBERTON      PTCLDY    63  63 100 CALM      30.01S FOG
GOLDSBORO      CLEAR     68  68 100 CALM      29.99F FOG
KINSTON        CLEAR     65  64  97 CALM      30.01F FOG
KENANSVILLE    CLEAR     64  63  94 CALM      30.01F FOG
NEW BERN       CLEAR     68  68 100 CALM      30.01F
CHERRY POINT   CLEAR     70  69  97 W3        30.01F
BEAUFORT       CLEAR     71  71 100 CALM      30.00S
JACKSONVILLE   CLEAR     69  69 100 CALM      30.00S
WILMINGTON     PTCLDY    68  67  96 CALM      30.00F
$$





USA.gov is the U.S. government's official web portal to all federal, state and local government web resources and services.